Orbital Elements at Epoch 2459200.5 (2020-Dec-17.0) TDB
Reference: JPL 19 (heliocentric ecliptic J2000)
Element | Value | Uncertainty (1-sigma) | Units |
e | .2450042892053835 | 4.5312e-08 | |
a | 3.09215006613269 | 2.5821e-08 | au |
q | 2.33456003706347 | 1.5305e-07 | au |
i | 4.118285450236018 | 5.0952e-06 | deg |
node | 166.710223476694 | 5.3843e-05 | deg |
peri | 267.9020865413602 | 5.4805e-05 | deg |
M | 319.4952242422077 | 1.0267e-05 | deg |
tp | 2459423.956505205796 (2021-Jul-28.45650521) | 5.8078e-05 | TDB |
period | 1986.045851855148 5.44 | 2.4877e-05 6.811e-08 | d yr |
n | .1812646972192143 | 2.2705e-09 | deg/d |
Q | 3.849740095201909 | 3.2148e-08 | au |
|
| | Orbit Determination Parameters
Additional Information
|